Regional Weather Roundup
Issued by NWS Bismarck, ND

Home | Current Version | Previous Version | Text Only | Print | Product List | Glossary On
Versions: 1 2 3 4 5 6 7 8 9 10 11 12 13 14 15 16 17 18 19 20 21 22 23 24 25 26 27 28 29 30 31 32 33 34 35 36 37 38 39 40 41 42 43 44 45 46 47 48 49 50
000
ASUS43 KBIS 180110
RWRBIS

NWR BROADCAST TEXT
NATIONAL WEATHER SERVICE BISMARCK ND
800 PM CDT THU AUG 17 2017

NOTE: "FAIR" INDICATES FEW OR NO CLOUDS BELOW 12,000 FEET WITH NO
SIGNIFICANT WEATHER AND/OR OBSTRUCTIONS TO VISIBILITY.


CITY           SKY/WX    TMP DP  RH WIND       PRES   REMARKS
WILLISTON      LGT RAIN  74  49  41 N16       29.84F
MINOT          MOCLDY    79  53  40 E8        29.81S
MINOT AFB      MOCLDY    79  53  40 E15       29.80S
BISMARCK       CLOUDY    75  60  59 S6        29.82F
DICKINSON      CLOUDY    75  45  34 NW8       29.87S
GARRISON         N/A     77  64  64 SE7       29.80S
HETTINGER ARPT MOCLDY    74  58  57 W5        29.90S
JAMESTOWN      CLEAR     71  63  75 E3        29.85F
CARRINGTON     FAIR      73  59  60 E5        29.87F
HAZEN          FAIR      77  54  44 NW7       29.82R
LINTON           N/A     73  57  56 SE7       29.86S
MANDAN         FAIR      75  59  57 S9        29.83F
RUGBY          FAIR      72  59  64 E7        29.84S
STANLEY        FAIR      75  54  46 NW7       29.85S
TIOGA          FAIR      75  54  46 NW9G16    29.85S
WATFORD CITY   FAIR      77  50  38 NW14      29.84S
$$

CITY           SKY/WX    TMP DP  RH WIND       PRES   REMARKS
GRAND FORKS    PTCLDY    77  61  57 E5        29.81F
GRAND FORKS AF PTCLDY    81  63  54 N1        29.88S
DEVILS LAKE    PTCLDY    75  59  57 S3        29.86F
FARGO          CLEAR     74  60  61 NE3       29.83F
CANDO          MOCLDY    73  61  64 S5        29.87F
CAVALIER       FAIR      75  61  60 CALM      29.82S
GRAFTON        FAIR      72  63  73 E3        29.83F
GWINNER        CLEAR     72  66  83 CALM      29.86S
LANGDON        FAIR      72  64  78 CALM      29.86F
ROLLA          FAIR      70  61  73 CALM      29.87F
WALHALLA       FAIR      73  73 100 CALM      29.82S
$$

CITY           SKY/WX    TMP DP  RH WIND       PRES   REMARKS
ABERDEEN       CLEAR     71  62  73 E5        29.86F
MOBRIDGE       CLOUDY    74  62  66 E9        29.83
BUFFALO          N/A     78  44  29 W10       29.86F
RAPID CITY     LGT RAIN  68  51  54 NE17      29.92F
GLASGOW        SUNNY     82  38  20 N10       29.90R
SIDNEY         CLEAR     79  48  33 N10       29.86S
WOLF POINT     SUNNY     83  42  23 N7        29.89S
GLENDIVE       SUNNY     79  46  31 N21       29.89R
MILES CITY     SUNNY     86  31  13 N9        29.89R
BAKER          CLOUDY    78  38  23 NE9       29.93R
$$

CITY           SKY/WX    TMP DP  RH WIND       PRES   REMARKS
BILLINGS       MOSUNNY   83  30  14 NW10      29.98R
GREAT FALLS    SUNNY     83  35  18 CALM      30.00F
REGINA         MOSUNNY   75  46  35 NW12G18   29.89R
ESTEVAN        MOCLDY    73  55  53 N9        29.87R
$$




USA.gov is the U.S. government's official web portal to all federal, state and local government web resources and services.